[[{"header":{"parameterUnit":"m.s-1","parameterCategory":2,"la1":30.2991,"la2":30.254,"lo1":-89.0895,"lo2":-89.0444,"dy":0.0017,"dx":0.0017,"nx":28,"ny":28,"refTime":"2024-05-24T03:00:00:Z","depth":"0","parameterNumber":2,"parameterNumberName":"U-component_of_CURRENTS"},"data":[0,0,0,0,0,0,0,0,0,0,0,0,0,0,0,0,0,0,0,0,0,0,0,0,0,0,0,0,0,0,0,0,0,0,0,0,0,0,0,0,0,0,0,0,0,0,0,0,0,0,0,0,0,0,0,0,0,0,0.3136,0.3137,0,0.3203,0.3203,0.3204,0.3194,0.3193,0.3192,0.3191,0.318,0.318,0.3181,0,0,0,0,0,0,0,0,0,0,0,0,0,0.3003,0.3005,0.3136,0.3137,0.3138,0.3203,0.3203,0.3204,0.3194,0.3193,0.3192,0.3191,0.3179,0.318,0.3181,0,0,0,0,0,0,0,0,0,0,0,0,0,0.3061,0.3006,0.3136,0.3143,0.3145,0.3202,0.3203,0.3204,0.3194,0.3193,0.3192,0.3191,0.3179,0.318,0.3181,0.321,0,0,0.3183,0.3183,0,0,0,0,0,0,0,0,0.3058,0.3066,0.3141,0.3143,0.3145,0.3191,0.3152,0.3203,0.3195,0.3172,0.3191,0.319,0.3179,0.318,0.3192,0.3209,0.3209,0.3183,0.3183,0.3184,0.3184,0,0,0,0,0,0,0,0.3054,0.3063,0.3159,0.3143,0.3145,0.3145,0.3151,0.3162,0.3178,0.3174,0.3174,0.3187,0.3179,0.3191,0.3191,0.3209,0.3183,0.3183,0.3184,0.3184,0.326,0.3262,0,0,0,0,0,0,0.3054,0.3059,0.3157,0.3161,0.3101,0.3148,0.3155,0.3175,0.318,0.3181,0.3188,0.3187,0.3191,0.3191,0.3191,0.3237,0.3184,0.3184,0.3185,0.3259,0.3261,0.3262,0,0,0,0,0,0,0.3051,0.3062,0.3154,0.3113,0.3126,0.3152,0.3174,0.3177,0.3194,0.3192,0.319,0.3202,0.319,0.319,0.3209,0.3236,0.3185,0.3185,0.3257,0.3259,0.3261,0.3322,0,0,0,0,0,0,0.3047,0.3061,0.3076,0.3114,0.3128,0.3193,0.3176,0.318,0.3205,0.3203,0.3204,0.3201,0.3189,0.3208,0.3209,0.3236,0.3186,0.3255,0.3258,0.3261,0.3318,0.3326,0.3333,0,0,0,0,0,0.3042,0.3068,0.3076,0.3088,0.3148,0.3194,0.3201,0.3213,0.3207,0.3221,0.3222,0.3201,0.3228,0.321,0.3211,0.3238,0.3253,0.3257,0.326,0.3314,0.3324,0.3333,0,0,0,0,0,0,0.3017,0.3071,0.3081,0.3122,0.3157,0.3193,0.3213,0.3222,0.3237,0.3233,0.3222,0.3221,0.3249,0.3239,0.322,0.327,0.3237,0.3241,0.3278,0.3287,0.3295,0.3315,0.3186,0,0,0,0,0,0.3022,0.3056,0.3102,0.3136,0.3155,0.3187,0.3207,0.3218,0.3238,0.3244,0.3244,0.3249,0.3268,0.3272,0.3281,0.331,0.3342,0.3329,0.3336,0.3343,0.3361,0.3441,0.3459,0.3274,0.3274,0.3274,0,0,0.3021,0.3058,0.3076,0.3133,0.3161,0.3197,0.3195,0.3233,0.326,0.3241,0.3269,0.3276,0.3282,0.3314,0.3325,0.3306,0.3414,0.3347,0.3353,0.3368,0.3447,0.3465,0.3481,0.3277,0.3276,0.3276,0,0,0.3039,0.3072,0.3104,0.3139,0.3189,0.3211,0.3225,0.3265,0.3278,0.3316,0.331,0.3336,0.3356,0.337,0.3379,0.3437,0.3453,0.3438,0.3491,0.3569,0.3585,0.3599,0.3672,0.3693,0.3439,0.3439,0.3439,0,0.3035,0.3083,0.312,0.316,0.3185,0.3219,0.3249,0.3282,0.332,0.3343,0.3329,0.3396,0.3387,0.3448,0.3464,0.3455,0.3506,0.3453,0.358,0.3595,0.3609,0.368,0.3702,0.3443,0.3442,0.3442,0.3442,0,0.3076,0.3114,0.3138,0.3197,0.3227,0.3264,0.3309,0.3344,0.3364,0.3396,0.3461,0.3471,0.3516,0.3515,0.3506,0.3601,0.3609,0.3583,0.3558,0.3632,0.3702,0.3724,0.3448,0.3446,0.3445,0.3444,0,0,0.3063,0.3148,0.3154,0.3186,0.3246,0.328,0.3332,0.3394,0.3453,0.3488,0.3562,0.3594,0.3619,0.3633,0.3635,0.3692,0.3822,0.3686,0.3688,0.3761,0.4014,0.3989,0.401,0.383,0.3834,0.3837,0.4027,0,0.3079,0.3146,0.3183,0.3244,0.328,0.3327,0.338,0.3441,0.3497,0.358,0.3619,0.3689,0.3661,0.3698,0.3756,0.3812,0.3883,0.3774,0.393,0.3935,0.3906,0.4035,0.393,0.4088,0.4048,0.4052,0.4054,0,0.3089,0.3144,0.3193,0.3278,0.3299,0.3343,0.344,0.3496,0.3613,0.3661,0.3746,0.3791,0.3893,0.3849,0.4011,0.3952,0.3998,0.403,0.4037,0.401,0.3951,0.4007,0.4129,0.4052,0.4088,0.4085,0.4083,0,0.3047,0.3139,0.3175,0.3205,0.3311,0.3352,0.3413,0.3521,0.3574,0.373,0.3792,0.3922,0.3993,0.4088,0.4154,0.4109,0.4326,0.4265,0.4289,0.4287,0.4225,0.4211,0.4293,0.439,0.439,0.4389,0.4389,0,0.3035,0.3073,0.317,0.3202,0.3258,0.3348,0.3425,0.3509,0.3638,0.3715,0.3838,0.3929,0.4061,0.4182,0.423,0.4349,0.4399,0.4345,0.4353,0.4242,0.4228,0.4177,0.4109,0.4396,0.4395,0.4393,0.4392,0,0.2974,0.3034,0.3087,0.3205,0.3233,0.3277,0.3388,0.3457,0.3603,0.3713,0.3766,0.3967,0.4152,0.427,0.4438,0.4445,0.4446,0.4565,0.4427,0.4416,0.4339,0.4277,0.42,0.4076,0.4647,0.4647,0.4648,0,0.2945,0.2971,0.3056,0.3074,0.3125,0.3203,0.3247,0.3398,0.3472,0.372,0.3767,0.4005,0.4137,0.4402,0.4505,0.4644,0.4479,0.459,0.4471,0.4368,0.4306,0.4093,0.3977,0.4422,0.4421,0.442,0.4419,0,0.29,0.2922,0.2961,0.2999,0.3039,0.308,0.3175,0.3222,0.3417,0.3545,0.3736,0.3879,0.4172,0.4306,0.4509,0.456,0.439,0.4572,0.451,0.4194,0.3924,0.3796,0.426,0.441,0.4411,0.4412,0.4412,0.4412,0.2847,0.2843,0.2887,0.2915,0.294,0.2969,0.2976,0.3096,0.3206,0.3393,0.3616,0.3807,0.4109,0.44,0.441,0.4421,0.4336,0.4348,0.4305,0.4118,0.3917,0.4362,0.4479,0.448,0.4481,0.4482,0.4483,0,0.279,0.2792,0.281,0.2824,0.281,0.2868,0.2922,0.293,0.301,0.3245,0.342,0.3781,0.3957,0.4137,0.4299,0.4202,0.3967,0.4105,0.3795,0.371,0.4187,0.4097,0.4079,0.4079,0.4079,0.4079,0.4079,0.4079,0.2762,0.2748,0.2758,0.2704,0.2706,0.2649,0.2654,0.2681,0.2802,0.3009,0.3213,0.3455,0.3843,0.4134,0.4119,0.4019,0.3703,0.3566,0.3508,0.3883,0.3901,0.3918,0.382,0.3744,0.3743,0.2897,0.2891,0.2887]},{"header":{"parameterUnit":"m.s-1","parameterCategory":2,"la1":30.2991,"la2":30.254,"lo1":-89.0895,"lo2":-89.0444,"dy":0.0017,"dx":0.0017,"nx":28,"ny":28,"refTime":"2024-05-24T03:00:00:Z","depth":"0","parameterNumber":3,"parameterNumberName":"V-component_of_CURRENTS"},"data":[0,0,0,0,0,0,0,0,0,0,0,0,0,0,0,0,0,0,0,0,0,0,0,0,0,0,0,0,0,0,0,0,0,0,0,0,0,0,0,0,0,0,0,0,0,0,0,0,0,0,0,0,0,0,0,0,0,0,0.009,0.0089,0,-0.0028,-0.003,-0.0031,-0.0093,-0.0093,-0.0093,-0.0093,-0.0232,-0.0236,-0.0239,0,0,0,0,0,0,0,0,0,0,0,0,0,0.017,0.0169,0.009,0.0089,0.0088,-0.0028,-0.003,-0.0031,-0.0093,-0.0093,-0.0093,-0.0093,-0.0231,-0.0235,-0.024,0,0,0,0,0,0,0,0,0,0,0,0,0,0.0101,0.0169,0.0091,0.0044,0.0039,-0.0028,-0.003,-0.0032,-0.0093,-0.0093,-0.0093,-0.0093,-0.0229,-0.0235,-0.024,-0.0275,0,0,-0.0257,-0.026,0,0,0,0,0,0,0,0,0.0105,0.0098,0.0052,0.0047,0.0041,-0.0045,-0.0053,-0.0114,-0.0093,-0.0045,-0.0093,-0.0093,-0.0171,-0.0181,-0.0205,-0.0282,-0.0288,-0.0258,-0.0261,-0.0264,-0.0265,0,0,0,0,0,0,0,0.011,0.0102,0.0042,0.0051,0.0044,-0.0003,-0.0012,-0.0065,-0.0108,-0.0049,-0.0053,-0.0064,-0.0174,-0.0199,-0.0209,-0.029,-0.0258,-0.0263,-0.0266,-0.0268,-0.0408,-0.0408,0,0,0,0,0,0,0.0132,0.0107,0.0046,0.0039,0.0075,-0.0004,-0.0014,-0.0018,-0.0107,-0.012,-0.0064,-0.0067,-0.019,-0.0202,-0.0214,-0.025,-0.0264,-0.0269,-0.0272,-0.0407,-0.0408,-0.0408,0,0,0,0,0,0,0.0134,0.0128,0.0051,0.0071,0.0058,-0.0005,-0.0009,-0.0021,-0.0039,-0.0118,-0.0132,-0.007,-0.019,-0.0206,-0.0254,-0.0256,-0.0271,-0.0276,-0.0407,-0.0407,-0.0408,-0.0329,0,0,0,0,0,0,0.0137,0.013,0.0133,0.0073,0.0058,0.0024,-0.001,-0.0023,-0.0046,-0.0051,-0.0128,-0.0141,-0.0191,-0.0245,-0.0259,-0.0264,-0.0281,-0.0406,-0.0407,-0.0408,-0.0331,-0.0327,-0.0323,0,0,0,0,0,0.0141,0.0146,0.0134,0.0127,0.0065,0.0024,0.0012,-0.0034,-0.0046,-0.0051,-0.0103,-0.0138,-0.026,-0.0249,-0.0266,-0.0273,-0.0406,-0.0407,-0.0408,-0.0333,-0.0328,-0.0323,0,0,0,0,0,0,0.0178,0.0138,0.0125,0.0117,0.0081,0.0015,0.0002,-0.0024,-0.0071,-0.0075,-0.0143,-0.016,-0.0204,-0.025,-0.0237,-0.0316,-0.0339,-0.0343,-0.0277,-0.0273,-0.0269,-0.0217,-0.0285,0,0,0,0,0,0.0191,0.0188,0.014,0.0135,0.012,0.0066,0.0044,0.0015,-0.0034,-0.0054,-0.0107,-0.0167,-0.0223,-0.0253,-0.0309,-0.035,-0.036,-0.0367,-0.0363,-0.0359,-0.0329,-0.0355,-0.0349,-0.0411,-0.0411,-0.0411,0,0,0.0203,0.0182,0.0178,0.0143,0.011,0.0098,0.0052,0.0026,0.0016,-0.0063,-0.0092,-0.0154,-0.0231,-0.0278,-0.0302,-0.0314,-0.0346,-0.036,-0.0356,-0.0327,-0.0355,-0.0349,-0.0343,-0.0411,-0.0411,-0.0411,0,0,0.0229,0.0209,0.0217,0.0194,0.0156,0.0122,0.0123,0.0066,0.0042,0.0003,-0.0057,-0.0112,-0.0195,-0.0251,-0.029,-0.0297,-0.0323,-0.032,-0.026,-0.0286,-0.028,-0.0275,-0.0269,-0.0264,-0.032,-0.0319,-0.0319,0,0.0247,0.0254,0.0212,0.0213,0.0203,0.0144,0.0152,0.0114,0.005,0.0043,0.0008,-0.0101,-0.0181,-0.0226,-0.0238,-0.0286,-0.0286,-0.027,-0.0277,-0.0272,-0.0268,-0.0264,-0.0259,-0.0316,-0.0316,-0.0317,-0.0317,0,0.028,0.0285,0.0287,0.0276,0.0256,0.0252,0.0203,0.0188,0.0152,0.0117,0.0073,-0.0033,-0.0084,-0.0139,-0.0196,-0.0213,-0.0216,-0.0265,-0.0278,-0.0256,-0.0254,-0.0251,-0.031,-0.0312,-0.0313,-0.0314,0,0,0.0325,0.0316,0.0318,0.0338,0.0294,0.0292,0.0276,0.0259,0.0286,0.0197,0.0222,0.0081,0.0046,-0.0,-0.0084,-0.0127,-0.0126,-0.0174,-0.0177,-0.0147,-0.0144,-0.0157,-0.0155,-0.0167,-0.0167,-0.0166,-0.0147,0,0.037,0.0406,0.0378,0.0415,0.0433,0.0386,0.0392,0.0367,0.0338,0.0346,0.0237,0.022,0.0092,0.0083,0.0015,-0.008,-0.0114,-0.0124,-0.0186,-0.0187,-0.0186,-0.0151,-0.0158,-0.0143,-0.0144,-0.0144,-0.0143,0,0.0416,0.044,0.0489,0.0519,0.0524,0.054,0.0568,0.0566,0.0545,0.0528,0.0483,0.0416,0.0341,0.0234,0.0095,0.0104,-0.0002,-0.009,-0.0093,-0.0123,-0.0195,-0.0171,-0.0137,-0.0387,-0.0139,-0.0139,-0.0139,0,0.0494,0.052,0.0574,0.0579,0.0597,0.0627,0.064,0.0634,0.0674,0.0667,0.0714,0.0594,0.0582,0.0418,0.0221,0.0175,0.0088,-0.0005,-0.0114,-0.0115,-0.0141,-0.0146,-0.0337,-0.0088,-0.0088,-0.0088,-0.0088,0,0.0558,0.0606,0.0628,0.0665,0.0756,0.073,0.0833,0.0827,0.0867,0.0963,0.0834,0.0897,0.0632,0.054,0.032,0.0139,0.0165,-0.0072,-0.0108,-0.0115,-0.0118,-0.0354,-0.0469,-0.0087,-0.0087,-0.0087,-0.0088,0,0.0639,0.0645,0.0725,0.0773,0.08,0.0872,0.0968,0.1049,0.107,0.12,0.1218,0.1152,0.1039,0.0769,0.0529,0.0305,-0.003,0.0024,0.005,0.0017,-0.0342,-0.045,-0.0618,-0.0737,-0.0085,-0.0085,-0.0086,0,0.0688,0.0739,0.082,0.0888,0.0923,0.1027,0.1113,0.1149,0.1252,0.1375,0.1461,0.1404,0.14,0.1043,0.0619,0.0262,0.0005,0.0019,-0.0102,-0.0336,-0.0483,-0.0578,-0.0673,-0.0101,-0.0101,-0.0101,-0.0102,0,0.0804,0.0831,0.0899,0.1035,0.1139,0.1256,0.1386,0.1499,0.1588,0.1706,0.1856,0.1873,0.1545,0.119,0.0689,0.0404,-0.0152,0.0004,-0.0257,-0.051,-0.0605,-0.0743,-0.0123,-0.0103,-0.0103,-0.0103,-0.0103,-0.0103,0.091,0.0982,0.1082,0.1209,0.1329,0.1498,0.1628,0.1776,0.1972,0.2185,0.2162,0.2227,0.1693,0.1005,0.0601,-0.0172,-0.017,-0.042,-0.0524,-0.0594,-0.0738,-0.01,-0.0121,-0.0121,-0.0121,-0.0121,-0.0121,0,0.106,0.1135,0.1257,0.1422,0.1571,0.1601,0.1825,0.1969,0.2223,0.2398,0.252,0.2269,0.1629,0.0921,-0.0095,-0.0613,-0.0833,-0.0901,-0.1069,-0.1139,-0.0588,-0.0625,-0.0734,-0.0733,-0.0733,-0.0733,-0.0733,-0.0732,0.1166,0.1308,0.1357,0.1619,0.173,0.1948,0.2084,0.2291,0.2448,0.2653,0.2668,0.2636,0.205,0.0336,-0.0883,-0.1167,-0.1518,-0.1571,-0.1755,-0.1426,-0.1391,-0.1357,-0.1424,-0.1698,-0.17,-0.2286,-0.2292,-0.2296]}],[{"header":{"parameterUnit":"m.s-1","parameterCategory":2,"la1":30.2991,"la2":30.254,"lo1":-89.0895,"lo2":-89.0444,"dy":0.0017,"dx":0.0017,"nx":28,"ny":28,"refTime":"2024-05-24T03:00:00:Z","depth":"2","parameterNumber":2,"parameterNumberName":"U-component_of_CURRENTS"},"data":[0,0,0,0,0,0,0,0,0,0,0,0,0,0,0,0,0,0,0,0,0,0,0,0,0,0,0,0,0,0,0,0,0,0,0,0,0,0,0,0,0,0,0,0,0,0,0,0,0,0,0,0,0,0,0,0,0,0,0.2588,0.259,0,0.2655,0.2655,0.2656,0.2666,0.2666,0.2666,0.2666,0.2686,0.2686,0.2687,0,0,0,0,0,0,0,0,0,0,0,0,0,0.2467,0.2468,0.2588,0.259,0.2591,0.2655,0.2655,0.2656,0.2666,0.2666,0.2666,0.2666,0.2686,0.2686,0.2687,0,0,0,0,0,0,0,0,0,0,0,0,0,0.2518,0.2469,0.2588,0.2609,0.2612,0.2655,0.2655,0.2656,0.2666,0.2666,0.2666,0.2666,0.2685,0.2686,0.2687,0.2689,0,0,0.2689,0.2689,0,0,0,0,0,0,0,0,0.2515,0.2522,0.2605,0.2608,0.2612,0.2659,0.262,0.2667,0.2666,0.2638,0.2666,0.2666,0.2677,0.2678,0.2681,0.269,0.2691,0.2689,0.2689,0.269,0.269,0,0,0,0,0,0,0,0.2512,0.2519,0.2607,0.2607,0.2611,0.2615,0.2622,0.2629,0.265,0.264,0.2643,0.2662,0.2677,0.268,0.2682,0.2691,0.2689,0.269,0.269,0.269,0.2769,0.277,0,0,0,0,0,0,0.2518,0.2516,0.2605,0.261,0.2571,0.2618,0.2625,0.2638,0.2651,0.2655,0.2662,0.2663,0.2679,0.2681,0.2682,0.2753,0.269,0.269,0.2691,0.2767,0.2769,0.2771,0,0,0,0,0,0,0.2515,0.2525,0.2603,0.257,0.2582,0.2621,0.2634,0.2639,0.2662,0.2669,0.2671,0.2683,0.2679,0.2681,0.2712,0.2751,0.2691,0.2691,0.2765,0.2768,0.277,0.285,0,0,0,0,0,0,0.2511,0.2523,0.2539,0.2571,0.2584,0.2644,0.2635,0.2641,0.2676,0.2677,0.2687,0.2688,0.268,0.2711,0.2713,0.2751,0.2692,0.2763,0.2766,0.2769,0.2845,0.2855,0.2863,0,0,0,0,0,0.2506,0.2542,0.2539,0.2551,0.2602,0.2646,0.2652,0.2675,0.2677,0.2693,0.2704,0.2689,0.2732,0.2713,0.2714,0.2754,0.2761,0.2765,0.2769,0.2841,0.2853,0.2863,0,0,0,0,0,0,0.2504,0.2548,0.2545,0.2592,0.2619,0.265,0.2681,0.2688,0.2709,0.2713,0.2708,0.271,0.2756,0.2741,0.272,0.2785,0.2745,0.2749,0.28,0.2811,0.282,0.2829,0.2692,0,0,0,0,0,0.2508,0.2539,0.2574,0.2609,0.2629,0.2652,0.2676,0.2687,0.2712,0.2722,0.2732,0.2745,0.277,0.2779,0.2794,0.2823,0.2836,0.285,0.2859,0.2867,0.2876,0.2927,0.2941,0.2783,0.2783,0.2783,0,0,0.2511,0.2546,0.2559,0.261,0.2633,0.2668,0.2666,0.271,0.2737,0.272,0.2765,0.278,0.2787,0.2829,0.2847,0.2821,0.2923,0.2872,0.2878,0.2883,0.2932,0.2948,0.2962,0.2786,0.2785,0.2785,0,0,0.2538,0.2569,0.2599,0.2628,0.2677,0.2696,0.2714,0.2752,0.2771,0.281,0.2815,0.2853,0.2878,0.2897,0.2908,0.2973,0.2975,0.2981,0.3029,0.3079,0.3092,0.3104,0.3161,0.3177,0.2979,0.2979,0.2979,0,0.254,0.2582,0.2614,0.2654,0.2684,0.2712,0.2744,0.2774,0.2815,0.2843,0.2835,0.2915,0.2912,0.298,0.3002,0.2995,0.3027,0.2987,0.3092,0.3103,0.3114,0.3169,0.3186,0.2983,0.2983,0.2982,0.2982,0,0.2582,0.2617,0.2647,0.2697,0.2732,0.2772,0.2814,0.2856,0.2883,0.291,0.2989,0.3003,0.3052,0.306,0.3048,0.3133,0.3135,0.3104,0.3065,0.3135,0.3189,0.3205,0.2989,0.2988,0.2987,0.2986,0,0,0.2573,0.2655,0.2665,0.2692,0.2757,0.2794,0.2854,0.2918,0.2975,0.3019,0.3092,0.3138,0.3162,0.3176,0.3182,0.3216,0.3318,0.3196,0.3196,0.3254,0.3449,0.3388,0.34,0.3311,0.3314,0.3316,0.3463,0,0.2589,0.2662,0.27,0.2765,0.28,0.2851,0.2908,0.2972,0.3028,0.3109,0.3153,0.3224,0.3203,0.324,0.3279,0.3307,0.3362,0.3282,0.337,0.3373,0.3311,0.3417,0.3167,0.3271,0.3479,0.3482,0.3484,0,0.2602,0.2658,0.2711,0.2801,0.2824,0.2869,0.2975,0.3035,0.3148,0.3194,0.328,0.3319,0.3403,0.3362,0.3473,0.3429,0.3455,0.3467,0.3473,0.3396,0.3342,0.323,0.3292,0.351,0.3508,0.3506,0.3505,0,0.2569,0.2662,0.2705,0.2733,0.2837,0.2882,0.2954,0.306,0.312,0.3262,0.3327,0.3429,0.3493,0.3545,0.3574,0.3541,0.3683,0.3635,0.3615,0.3612,0.3404,0.3377,0.3725,0.3724,0.3724,0.3724,0.3723,0,0.2563,0.2604,0.2697,0.2728,0.2799,0.2881,0.2968,0.3063,0.3182,0.3264,0.3377,0.3456,0.3542,0.3622,0.3634,0.3686,0.3741,0.3656,0.3654,0.3426,0.3401,0.3596,0.3579,0.3729,0.3728,0.3727,0.3726,0,0.2519,0.2566,0.2626,0.2742,0.2777,0.2835,0.2961,0.3021,0.3168,0.3282,0.3332,0.3499,0.3618,0.3693,0.3783,0.3763,0.3805,0.3805,0.354,0.3503,0.3692,0.3677,0.382,0.3819,0.3819,0.3818,0.3818,0,0.2505,0.2522,0.263,0.2646,0.2697,0.2787,0.2833,0.2985,0.306,0.3289,0.3342,0.3515,0.3601,0.3745,0.3753,0.3808,0.3832,0.3587,0.3467,0.3723,0.3707,0.3693,0.368,0.3238,0.3233,0.3229,0.3225,0,0.2469,0.2495,0.2538,0.2597,0.2632,0.2696,0.2803,0.2842,0.3026,0.3136,0.3284,0.3375,0.3558,0.3508,0.3603,0.3582,0.3556,0.3504,0.3858,0.3244,0.3183,0.3164,0.3168,0.3188,0.3191,0.3194,0.3196,0.3198,0.242,0.2434,0.2478,0.2519,0.2562,0.2607,0.2612,0.2722,0.281,0.2946,0.3108,0.3181,0.327,0.3294,0.3226,0.3196,0.3423,0.3271,0.3281,0.3295,0.3193,0.3133,0.3111,0.3114,0.3117,0.3119,0.3122,0,0.2374,0.239,0.2405,0.243,0.2439,0.2517,0.258,0.2551,0.2592,0.2761,0.2858,0.2707,0.2738,0.2825,0.2746,0.2776,0.2706,0.2652,0.2534,0.2577,0.2614,0.2471,0.2201,0.2197,0.2194,0.2191,0,0,0.2334,0.2313,0.2316,0.2291,0.2323,0.2291,0.2294,0.2276,0.2364,0.2358,0.2403,0.263,0.2783,0.2449,0.2434,0.2306,0.2409,0.2223,0.2979,0.2888,0.2919,0.3011,0.2846,0,0,0,0,0]},{"header":{"parameterUnit":"m.s-1","parameterCategory":2,"la1":30.2991,"la2":30.254,"lo1":-89.0895,"lo2":-89.0444,"dy":0.0017,"dx":0.0017,"nx":28,"ny":28,"refTime":"2024-05-24T03:00:00:Z","depth":"2","parameterNumber":3,"parameterNumberName":"V-component_of_CURRENTS"},"data":[0,0,0,0,0,0,0,0,0,0,0,0,0,0,0,0,0,0,0,0,0,0,0,0,0,0,0,0,0,0,0,0,0,0,0,0,0,0,0,0,0,0,0,0,0,0,0,0,0,0,0,0,0,0,0,0,0,0,-0.0008,-0.0009,0,-0.0083,-0.0084,-0.0085,-0.0143,-0.0143,-0.0144,-0.0144,-0.0263,-0.0265,-0.0268,0,0,0,0,0,0,0,0,0,0,0,0,0,0.0017,0.0017,-0.0008,-0.0009,-0.001,-0.0083,-0.0084,-0.0085,-0.0143,-0.0143,-0.0144,-0.0144,-0.0262,-0.0265,-0.0268,0,0,0,0,0,0,0,0,0,0,0,0,0,-0.002,0.0017,-0.0008,-0.0047,-0.0051,-0.0083,-0.0084,-0.0086,-0.0143,-0.0143,-0.0144,-0.0145,-0.0261,-0.0265,-0.0269,-0.028,0,0,-0.0281,-0.0283,0,0,0,0,0,0,0,0,-0.0018,-0.0021,-0.004,-0.0044,-0.0049,-0.0104,-0.0119,-0.0153,-0.0142,-0.0109,-0.0144,-0.0145,-0.0212,-0.022,-0.0234,-0.0286,-0.0291,-0.0281,-0.0284,-0.0286,-0.0287,0,0,0,0,0,0,0,-0.0015,-0.0019,-0.0039,-0.0041,-0.0046,-0.0084,-0.0089,-0.0126,-0.0157,-0.0112,-0.0116,-0.0122,-0.0215,-0.023,-0.0237,-0.0293,-0.0281,-0.0285,-0.0288,-0.0289,-0.038,-0.038,0,0,0,0,0,0,0.0,-0.0016,-0.0037,-0.0041,-0.0034,-0.0083,-0.0089,-0.0086,-0.0156,-0.0167,-0.0122,-0.0125,-0.0222,-0.0232,-0.0241,-0.0265,-0.0286,-0.029,-0.0292,-0.038,-0.038,-0.038,0,0,0,0,0,0,0.0001,-0.0,-0.0034,-0.003,-0.0037,-0.0082,-0.0079,-0.0087,-0.0103,-0.0163,-0.0175,-0.0128,-0.0223,-0.0236,-0.0272,-0.027,-0.0291,-0.0295,-0.038,-0.038,-0.038,-0.0308,0,0,0,0,0,0,0.0003,0.0001,0.0009,-0.0029,-0.0036,-0.0043,-0.0078,-0.0088,-0.0105,-0.011,-0.0172,-0.0184,-0.0225,-0.0265,-0.0276,-0.0276,-0.0298,-0.038,-0.038,-0.038,-0.031,-0.0305,-0.0301,0,0,0,0,0,0.0004,0.002,0.001,0.0007,-0.0023,-0.0042,-0.005,-0.0086,-0.0104,-0.0104,-0.0149,-0.0182,-0.0273,-0.0268,-0.0281,-0.0282,-0.038,-0.038,-0.038,-0.0312,-0.0306,-0.0301,0,0,0,0,0,0,0.0035,0.0015,0.0003,0.0012,-0.0009,-0.0052,-0.0055,-0.0079,-0.0114,-0.0121,-0.018,-0.0195,-0.0228,-0.0263,-0.0257,-0.0308,-0.0332,-0.0335,-0.0277,-0.0272,-0.0267,-0.0237,-0.0302,0,0,0,0,0,0.0047,0.0054,0.0026,0.0034,0.0027,-0.0012,-0.0025,-0.0047,-0.0083,-0.0099,-0.0143,-0.0192,-0.0236,-0.0259,-0.0301,-0.0325,-0.0356,-0.0335,-0.033,-0.0326,-0.031,-0.0357,-0.0354,-0.0379,-0.0379,-0.0379,0,0,0.0062,0.0051,0.0055,0.0041,0.0021,0.002,-0.0021,-0.0032,-0.0037,-0.0107,-0.0127,-0.0177,-0.024,-0.027,-0.0287,-0.0298,-0.0336,-0.0326,-0.0322,-0.0308,-0.0356,-0.0354,-0.0352,-0.0379,-0.0379,-0.0379,0,0,0.0096,0.0086,0.0104,0.0092,0.0071,0.0047,0.0048,0.0011,-0.0009,-0.0034,-0.0089,-0.0133,-0.0194,-0.0238,-0.0269,-0.0264,-0.031,-0.0281,-0.0232,-0.0278,-0.0276,-0.0274,-0.0308,-0.031,-0.0277,-0.0277,-0.0277,0,0.0112,0.0132,0.0105,0.0116,0.0112,0.0064,0.0079,0.0054,0.0009,-0.0002,-0.003,-0.0121,-0.0179,-0.0218,-0.022,-0.0253,-0.028,-0.0247,-0.027,-0.0269,-0.0269,-0.0304,-0.0307,-0.0274,-0.0274,-0.0274,-0.0275,0,0.016,0.0172,0.018,0.0181,0.0172,0.0177,0.0142,0.0132,0.0098,0.0068,0.0026,-0.0053,-0.0103,-0.0136,-0.0179,-0.0206,-0.0226,-0.0258,-0.0279,-0.0262,-0.03,-0.0305,-0.0269,-0.027,-0.0271,-0.0272,0,0,0.0205,0.0214,0.0216,0.0232,0.0208,0.021,0.0205,0.019,0.0198,0.0135,0.0134,0.004,-0.0001,-0.0038,-0.0103,-0.0148,-0.0181,-0.0193,-0.0197,-0.0216,-0.0269,-0.0292,-0.03,-0.0216,-0.0216,-0.0217,-0.0295,0,0.0249,0.029,0.0277,0.0313,0.0332,0.0296,0.0302,0.028,0.0247,0.0234,0.0146,0.0116,0.0035,0.0015,-0.0044,-0.0144,-0.019,-0.0156,-0.0291,-0.0295,-0.0309,-0.0305,-0.0262,-0.0329,-0.03,-0.0301,-0.0301,0,0.0299,0.0321,0.0367,0.0392,0.0398,0.0414,0.0422,0.0422,0.0384,0.0361,0.0308,0.024,0.0163,0.0094,-0.0061,-0.0034,-0.0138,-0.0221,-0.0227,-0.0273,-0.0326,-0.0343,-0.0339,-0.031,-0.0309,-0.0309,-0.0308,0,0.0349,0.0383,0.0426,0.0432,0.0451,0.0473,0.0483,0.0465,0.0484,0.0447,0.0458,0.0341,0.0303,0.0153,-0.0027,-0.0042,-0.0193,-0.0241,-0.036,-0.0363,-0.0364,-0.0366,-0.0345,-0.0344,-0.0344,-0.0344,-0.0344,0,0.0399,0.0435,0.0461,0.0489,0.0555,0.0541,0.0603,0.0598,0.0604,0.0646,0.0536,0.0536,0.0318,0.0199,0.0018,-0.0177,-0.0164,-0.0343,-0.0384,-0.0339,-0.0338,-0.0353,-0.0353,-0.0347,-0.0346,-0.0346,-0.0345,0,0.0443,0.0458,0.0517,0.056,0.0583,0.0632,0.0697,0.0737,0.074,0.0794,0.0792,0.0686,0.0531,0.0307,0.0065,-0.0101,-0.03,-0.0373,-0.03,-0.0331,-0.045,-0.0446,-0.0513,-0.0514,-0.0516,-0.0517,-0.0517,0,0.0467,0.0502,0.0577,0.0626,0.0653,0.0724,0.0777,0.0804,0.086,0.0888,0.0925,0.0801,0.0719,0.036,0.0043,-0.0266,-0.0306,-0.042,-0.0453,-0.0434,-0.0467,-0.0461,-0.0455,-0.0429,-0.0429,-0.0429,-0.0429,0,0.0509,0.0536,0.0586,0.0693,0.0765,0.0853,0.0941,0.1005,0.105,0.1098,0.1118,0.1053,0.073,0.0414,0.0011,-0.0192,-0.0372,-0.0432,-0.043,-0.0391,-0.0361,-0.0391,-0.0387,-0.0429,-0.0429,-0.0429,-0.0429,-0.0429,0.053,0.0581,0.0653,0.0756,0.0856,0.0976,0.1048,0.1142,0.1242,0.132,0.1254,0.1186,0.0839,0.032,-0.0037,-0.0389,-0.0388,-0.0505,-0.0502,-0.05,-0.0475,-0.0448,-0.0528,-0.0528,-0.0529,-0.0529,-0.0529,0,0.0546,0.0616,0.071,0.0834,0.0949,0.0997,0.1154,0.1218,0.1337,0.1414,0.1419,0.1113,0.0771,0.0391,-0.0139,-0.047,-0.0483,-0.0555,-0.0501,-0.0498,-0.0496,-0.0469,-0.0522,-0.0523,-0.0524,-0.0525,0,0,0.0555,0.0638,0.0697,0.0886,0.0982,0.1124,0.1214,0.1321,0.1417,0.1471,0.1462,0.1365,0.0903,0.0523,0.0073,-0.0224,-0.0278,-0.0272,-0.0241,-0.0121,-0.0115,-0.0431,-0.0382,0,0,0,0,0]}],[{"header":{"parameterUnit":"m.s-1","parameterCategory":2,"la1":30.2991,"la2":30.254,"lo1":-89.0895,"lo2":-89.0444,"dy":0.0017,"dx":0.0017,"nx":28,"ny":28,"refTime":"2024-05-24T03:00:00:Z","depth":"4","parameterNumber":2,"parameterNumberName":"U-component_of_CURRENTS"},"data":[0,0,0,0,0,0,0,0,0,0,0,0,0,0,0,0,0,0,0,0,0,0,0,0,0,0,0,0,0,0,0,0,0,0,0,0,0,0,0,0,0,0,0,0,0,0,0,0,0,0,0,0,0,0,0,0,0,0,0.1539,0.1539,0,0.161,0.1611,0.1612,0.1682,0.1683,0.1684,0.1685,0.1787,0.1789,0.179,0,0,0,0,0,0,0,0,0,0,0,0,0,0.1437,0.1438,0.1539,0.1539,0.154,0.161,0.1611,0.1612,0.1682,0.1683,0.1684,0.1685,0.1786,0.1788,0.1791,0,0,0,0,0,0,0,0,0,0,0,0,0,0.1492,0.1439,0.1538,0.1584,0.1589,0.161,0.1611,0.1612,0.1682,0.1683,0.1685,0.1686,0.1786,0.1788,0.1791,0.178,0,0,0.1799,0.1801,0,0,0,0,0,0,0,0,0.1489,0.1496,0.1576,0.1581,0.1586,0.1639,0.1613,0.167,0.1682,0.1646,0.1685,0.1687,0.1739,0.1746,0.1756,0.1785,0.1789,0.18,0.1801,0.1803,0.1803,0,0,0,0,0,0,0,0.1485,0.1493,0.1567,0.1577,0.1583,0.1592,0.1601,0.1624,0.1685,0.165,0.1655,0.1663,0.1742,0.1753,0.1759,0.1791,0.18,0.1802,0.1804,0.1805,0.1929,0.193,0,0,0,0,0,0,0.1476,0.1489,0.1565,0.1569,0.154,0.1593,0.1603,0.162,0.1684,0.1695,0.1661,0.1666,0.1747,0.1755,0.1763,0.186,0.1803,0.1805,0.1807,0.1927,0.1929,0.1931,0,0,0,0,0,0,0.1474,0.1483,0.1562,0.153,0.1541,0.1593,0.1612,0.1621,0.1667,0.1692,0.1704,0.1702,0.1749,0.1759,0.1822,0.1861,0.1806,0.1809,0.1925,0.1928,0.193,0.1987,0,0,0,0,0,0,0.1471,0.1481,0.1504,0.153,0.1543,0.1598,0.1611,0.1622,0.1668,0.1675,0.173,0.1739,0.1751,0.1818,0.1825,0.1863,0.1811,0.1923,0.1926,0.1929,0.1983,0.1991,0.1998,0,0,0,0,0,0.1467,0.1481,0.1505,0.1515,0.1568,0.1599,0.1607,0.1647,0.1668,0.1693,0.1739,0.1739,0.1842,0.1821,0.1829,0.187,0.1922,0.1925,0.1929,0.198,0.1989,0.1998,0,0,0,0,0,0,0.1446,0.149,0.1517,0.1546,0.1584,0.1612,0.1636,0.1664,0.1717,0.1736,0.176,0.1773,0.1843,0.1846,0.1823,0.1914,0.1881,0.1887,0.1917,0.1927,0.1934,0.194,0.1813,0,0,0,0,0,0.1452,0.1481,0.1521,0.155,0.1568,0.161,0.1633,0.1666,0.1706,0.1733,0.1776,0.1818,0.1856,0.1885,0.1917,0.1965,0.198,0.1995,0.2003,0.2009,0.2019,0.2083,0.2098,0.1943,0.1943,0.1943,0,0,0.1454,0.148,0.1501,0.1549,0.158,0.1618,0.1629,0.1674,0.1717,0.1734,0.1816,0.1849,0.1875,0.1936,0.1966,0.1949,0.2061,0.2014,0.2019,0.2026,0.2089,0.2104,0.2117,0.1945,0.1945,0.1945,0,0,0.1456,0.1496,0.1521,0.1557,0.1612,0.1639,0.166,0.1717,0.1757,0.1825,0.1854,0.1914,0.1971,0.2004,0.2021,0.2086,0.2098,0.2101,0.2146,0.2209,0.2222,0.2234,0.2268,0.2283,0.2105,0.2105,0.2105,0,0.1458,0.1497,0.1533,0.1566,0.1603,0.1653,0.1694,0.1734,0.1812,0.1855,0.1862,0.1978,0.2,0.2073,0.2101,0.2104,0.2137,0.2109,0.2219,0.2231,0.2242,0.2275,0.229,0.2108,0.2107,0.2107,0.2107,0,0.1477,0.1521,0.1536,0.1602,0.1648,0.1689,0.175,0.1813,0.1867,0.1914,0.2013,0.2049,0.2122,0.2135,0.214,0.2235,0.2232,0.2221,0.2195,0.2262,0.2291,0.2306,0.2112,0.2111,0.211,0.211,0,0,0.1446,0.1533,0.1544,0.1589,0.1675,0.1713,0.1792,0.1877,0.1945,0.2018,0.2105,0.2169,0.221,0.2233,0.2254,0.2303,0.2405,0.2307,0.2308,0.2339,0.2542,0.2386,0.2387,0.2427,0.243,0.2433,0.2529,0,0.1454,0.1518,0.1567,0.1648,0.1691,0.1771,0.1842,0.1933,0.201,0.2108,0.2161,0.2252,0.2239,0.2295,0.2343,0.24,0.2449,0.2379,0.2475,0.2477,0.233,0.2401,0.2443,0.254,0.2543,0.2546,0.2548,0,0.1455,0.1503,0.1577,0.1687,0.1716,0.1778,0.1918,0.1994,0.2127,0.2191,0.2288,0.2341,0.2441,0.2413,0.2536,0.2503,0.2534,0.2556,0.256,0.2405,0.2349,0.2462,0.2574,0.2572,0.257,0.2568,0.2567,0,0.141,0.1511,0.1574,0.1612,0.174,0.1804,0.1891,0.2029,0.2105,0.2267,0.234,0.2452,0.253,0.2593,0.2643,0.2618,0.276,0.2723,0.2605,0.2594,0.2679,0.2666,0.2809,0.2808,0.2808,0.2808,0.2808,0,0.1382,0.1438,0.1566,0.1596,0.1696,0.1805,0.1925,0.2025,0.217,0.2265,0.2393,0.2465,0.2588,0.2671,0.2694,0.2694,0.2806,0.2627,0.2616,0.2699,0.2687,0.2689,0.2674,0.2812,0.2811,0.281,0.2809,0,0.1318,0.1396,0.1474,0.1615,0.1672,0.1752,0.1928,0.2006,0.2165,0.2293,0.2353,0.2516,0.2629,0.2712,0.2822,0.2746,0.2769,0.2739,0.2829,0.282,0.2547,0.2534,0.2613,0.2609,0.2605,0.2602,0.2599,0,0.1289,0.132,0.1471,0.1522,0.159,0.1726,0.1813,0.1987,0.2065,0.2293,0.2333,0.2508,0.2598,0.2625,0.2721,0.2759,0.2725,0.2711,0.2614,0.2549,0.2532,0.2525,0.2517,0.2593,0.2592,0.2591,0.259,0,0.1222,0.1282,0.1345,0.1454,0.1548,0.1647,0.1782,0.1821,0.2024,0.2177,0.2272,0.2343,0.2462,0.2532,0.2588,0.2602,0.2705,0.267,0.2677,0.2586,0.2525,0.251,0.2507,0.2576,0.2578,0.258,0.258,0,0.1176,0.1201,0.1285,0.1379,0.1482,0.1538,0.1624,0.1726,0.1827,0.2067,0.2091,0.228,0.2435,0.2452,0.2499,0.2511,0.2466,0.2372,0.2393,0.2409,0.2296,0.2186,0.2138,0,0,0,0,0,0.1116,0.1137,0.1206,0.1289,0.1381,0.1445,0.1591,0.1678,0.1864,0.1881,0.1981,0.2084,0.2173,0.2264,0.2236,0.2403,0.2469,0.2359,0.2369,0.2503,0.2518,0.2403,0,0,0,0,0,0,0.1077,0.1127,0.1167,0.1195,0.1234,0.1324,0.1409,0.1534,0.1553,0.1746,0.1808,0.1954,0.2072,0.2171,0.2194,0.2222,0.2185,0.2473,0.2468,0.2494,0.2508,0.252,0.2407,0,0,0,0,0]},{"header":{"parameterUnit":"m.s-1","parameterCategory":2,"la1":30.2991,"la2":30.254,"lo1":-89.0895,"lo2":-89.0444,"dy":0.0017,"dx":0.0017,"nx":28,"ny":28,"refTime":"2024-05-24T03:00:00:Z","depth":"4","parameterNumber":3,"parameterNumberName":"V-component_of_CURRENTS"},"data":[0,0,0,0,0,0,0,0,0,0,0,0,0,0,0,0,0,0,0,0,0,0,0,0,0,0,0,0,0,0,0,0,0,0,0,0,0,0,0,0,0,0,0,0,0,0,0,0,0,0,0,0,0,0,0,0,0,0,0.0062,0.0062,0,0.0024,0.0023,0.0023,-0.002,-0.0021,-0.0021,-0.0022,-0.0113,-0.0114,-0.0116,0,0,0,0,0,0,0,0,0,0,0,0,0,0.0055,0.0056,0.0062,0.0062,0.0061,0.0024,0.0023,0.0022,-0.002,-0.0021,-0.0021,-0.0022,-0.0112,-0.0114,-0.0117,0,0,0,0,0,0,0,0,0,0,0,0,0,0.0041,0.0056,0.0062,0.0036,0.0034,0.0024,0.0023,0.0022,-0.002,-0.0021,-0.0022,-0.0022,-0.0111,-0.0114,-0.0117,-0.0119,0,0,-0.0126,-0.0127,0,0,0,0,0,0,0,0,0.0042,0.0041,0.0041,0.0038,0.0035,0.0007,-0.0013,-0.0027,-0.002,-0.0001,-0.0022,-0.0023,-0.0076,-0.0082,-0.0088,-0.0124,-0.0128,-0.0126,-0.0128,-0.0129,-0.013,0,0,0,0,0,0,0,0.0043,0.0042,0.0046,0.004,0.0037,0.0012,0.0009,-0.0016,-0.0036,-0.0003,-0.0005,-0.0008,-0.0078,-0.0085,-0.0091,-0.0129,-0.0126,-0.0128,-0.013,-0.0131,-0.0183,-0.0183,0,0,0,0,0,0,0.0053,0.0043,0.0047,0.0045,0.0038,0.0013,0.001,0.0016,-0.0034,-0.0042,-0.0007,-0.0009,-0.008,-0.0088,-0.0094,-0.0105,-0.0129,-0.0132,-0.0133,-0.0184,-0.0183,-0.0183,0,0,0,0,0,0,0.0053,0.0054,0.0048,0.0043,0.0041,0.0015,0.0021,0.0015,0.0006,-0.0037,-0.0046,-0.001,-0.0081,-0.009,-0.0115,-0.0109,-0.0133,-0.0136,-0.0184,-0.0183,-0.0183,-0.0123,0,0,0,0,0,0,0.0054,0.0055,0.0063,0.0045,0.0042,0.0048,0.0022,0.0015,0.0007,0.0003,-0.0043,-0.0052,-0.0082,-0.0111,-0.0118,-0.0113,-0.0138,-0.0185,-0.0184,-0.0183,-0.0126,-0.0121,-0.0116,0,0,0,0,0,0.0054,0.0074,0.0063,0.0064,0.0054,0.0048,0.0045,0.0022,0.0008,0.0009,-0.0024,-0.0051,-0.0112,-0.0113,-0.0122,-0.0117,-0.0185,-0.0184,-0.0183,-0.0128,-0.0122,-0.0117,0,0,0,0,0,0,0.0077,0.0071,0.0059,0.0077,0.0064,0.0042,0.0045,0.0027,0.0003,-0.0001,-0.0046,-0.0057,-0.0077,-0.0104,-0.0103,-0.013,-0.0153,-0.0154,-0.0107,-0.0102,-0.0098,-0.0086,-0.014,0,0,0,0,0,0.0086,0.0098,0.0083,0.0095,0.0093,0.0068,0.0063,0.0048,0.0026,0.0015,-0.0017,-0.0051,-0.0079,-0.0096,-0.0124,-0.0137,-0.0176,-0.014,-0.0135,-0.0131,-0.0128,-0.0184,-0.0184,-0.018,-0.018,-0.018,0,0,0.0099,0.0096,0.0103,0.01,0.0089,0.0093,0.0063,0.0063,0.0061,0.0009,-0.0002,-0.0037,-0.008,-0.0095,-0.0107,-0.0117,-0.0152,-0.013,-0.0126,-0.0125,-0.0183,-0.0183,-0.0184,-0.018,-0.018,-0.018,0,0,0.013,0.0129,0.0146,0.014,0.013,0.0116,0.0118,0.0098,0.0085,0.0072,0.0032,0.0002,-0.0036,-0.0067,-0.0088,-0.0074,-0.0127,-0.0082,-0.005,-0.0103,-0.0104,-0.0106,-0.0154,-0.016,-0.0079,-0.0078,-0.0078,0,0.0143,0.0163,0.015,0.0162,0.0161,0.013,0.0144,0.013,0.0103,0.0092,0.0076,0.0013,-0.0023,-0.0051,-0.0045,-0.0064,-0.0102,-0.0066,-0.0098,-0.01,-0.0102,-0.0152,-0.016,-0.0076,-0.0076,-0.0076,-0.0076,0,0.0183,0.0196,0.0207,0.0211,0.021,0.0218,0.0199,0.0192,0.0171,0.0149,0.0118,0.0068,0.0028,0.0014,-0.0011,-0.0041,-0.0065,-0.0086,-0.0111,-0.0099,-0.0152,-0.0161,-0.0071,-0.0072,-0.0073,-0.0074,0,0,0.0215,0.0232,0.0235,0.0244,0.0237,0.0242,0.0243,0.0232,0.0231,0.0194,0.018,0.0131,0.0098,0.0072,0.0031,-0.0012,-0.006,-0.0048,-0.0053,-0.0094,-0.0179,-0.0171,-0.0181,-0.0089,-0.009,-0.0091,-0.0208,0,0.0246,0.0281,0.0279,0.0308,0.0324,0.0302,0.0307,0.0292,0.0267,0.0246,0.0187,0.016,0.0121,0.0102,0.0053,-0.0033,-0.0081,-0.0026,-0.0186,-0.0191,-0.0184,-0.019,-0.0095,-0.0215,-0.0218,-0.0219,-0.022,0,0.0279,0.03,0.0336,0.0357,0.0363,0.0375,0.0374,0.0376,0.0338,0.0317,0.0272,0.0221,0.0156,0.0121,-0.0021,0.0015,-0.0074,-0.0143,-0.0149,-0.0169,-0.0199,-0.0232,-0.0237,-0.0236,-0.0235,-0.0233,-0.0232,0,0.0303,0.0337,0.0368,0.0375,0.0394,0.0407,0.0416,0.0397,0.0403,0.0359,0.0348,0.0259,0.0214,0.0095,-0.004,-0.0038,-0.0203,-0.0223,-0.0302,-0.0303,-0.0302,-0.0299,-0.0329,-0.0329,-0.0328,-0.0328,-0.0328,0,0.0328,0.0354,0.0385,0.0403,0.0446,0.0446,0.0478,0.0471,0.046,0.0468,0.0389,0.0363,0.0205,0.0094,-0.0034,-0.0191,-0.0205,-0.0299,-0.0333,-0.0273,-0.0266,-0.0308,-0.0304,-0.0333,-0.0332,-0.0331,-0.033,0,0.0337,0.0359,0.04,0.0438,0.0459,0.0487,0.0532,0.0549,0.0536,0.0541,0.053,0.043,0.0288,0.0124,-0.0077,-0.0175,-0.0331,-0.0385,-0.0303,-0.0331,-0.0398,-0.039,-0.0488,-0.0489,-0.049,-0.049,-0.0491,0,0.034,0.0363,0.0427,0.0459,0.0479,0.0529,0.0565,0.0585,0.0604,0.0581,0.058,0.0458,0.0372,0.0105,-0.0078,-0.0327,-0.0359,-0.0441,-0.0422,-0.0391,-0.0415,-0.0406,-0.0397,-0.0492,-0.0492,-0.0492,-0.0492,0,0.0337,0.0361,0.0396,0.0471,0.0522,0.0585,0.0637,0.0661,0.068,0.0672,0.0628,0.0492,0.033,0.0117,-0.0075,-0.0254,-0.0387,-0.0448,-0.0448,-0.0431,-0.0397,-0.0418,-0.0408,-0.0494,-0.0494,-0.0494,-0.0494,0,0.0324,0.0349,0.04,0.0469,0.0541,0.0613,0.0648,0.068,0.0707,0.0693,0.0674,0.0509,0.0414,0.0153,-0.0027,-0.0198,-0.0246,-0.0295,-0.0304,-0.0304,-0.0214,-0.014,-0.019,0,0,0,0,0,0.0299,0.0333,0.0394,0.0472,0.0551,0.0603,0.068,0.0709,0.0737,0.0723,0.0707,0.0564,0.0309,0.019,0.002,-0.0067,-0.0298,-0.0274,-0.0364,-0.0506,-0.0503,-0.0427,0,0,0,0,0,0,0.0278,0.0327,0.0379,0.0467,0.0526,0.0616,0.0675,0.0701,0.0696,0.0701,0.057,0.0519,0.0266,0.0407,0.0016,-0.0039,-0.0119,-0.0392,-0.0396,-0.0507,-0.0505,-0.0503,-0.0424,0,0,0,0,0]}]]